This is the latest recevied weather packets stored in our database for station/object KB0RPJ. If no packets are shown the sender has not sent any weather packets the latest 10 day(s).
| Time | Temp. | Humidity | Pressure | Rain* | Wind** | Luminosity | Snow |
|---|---|---|---|---|---|---|---|
| 1777821005 | 16.11° C | 49% | 1012 hPa | 0 mm | - | 591 W/m² | - |
| 1777820718 | 16.11° C | 50% | 1012.3 hPa | 0 mm | - | 435 W/m² | - |
| 1777820405 | 15.56° C | 50% | 1012.3 hPa | 0 mm | - | 384 W/m² | - |
| 1777820105 | 15.56° C | 50% | 1012.4 hPa | 0 mm | - | 224 W/m² | - |
| 1777819810 | 15° C | 51% | 1012.5 hPa | 0 mm | - | 235 W/m² | - |
| 1777819505 | 15° C | 52% | 1012.4 hPa | 0 mm | - | 162 W/m² | - |
| 1777819205 | 15° C | 52% | 1012.3 hPa | 0 mm | - | 174 W/m² | - |
| 1777818904 | 14.44° C | 53% | 1012.5 hPa | 0 mm | - | 197 W/m² | - |
| 1777818605 | 13.89° C | 54% | 1012.2 hPa | 0 mm | - | 210 W/m² | - |
| 1777818304 | 13.89° C | 55% | 1012.3 hPa | 0 mm | - | 191 W/m² | - |
| 1777818006 | 13.33° C | 56% | 1012.3 hPa | 0 mm | - | 230 W/m² | - |
| 1777817705 | 13.33° C | 55% | 1012.4 hPa | 0 mm | - | 410 W/m² | - |
| 1777817405 | 12.78° C | 55% | 1012.5 hPa | 0 mm | - | 181 W/m² | - |
| 1777817105 | 12.78° C | 54% | 1012.5 hPa | 0 mm | - | 251 W/m² | - |
| 1777816804 | 12.78° C | 54% | 1012.6 hPa | 0 mm | - | 155 W/m² | - |
| 1777816505 | 12.78° C | 54% | 1012.7 hPa | 0 mm | - | 183 W/m² | - |
| 1777816204 | 12.78° C | 54% | 1012.8 hPa | 0 mm | - | 164 W/m² | - |
| 1777815905 | 12.22° C | 54% | 1013 hPa | 0 mm | - | 158 W/m² | - |
| 1777815607 | 12.22° C | 55% | 1013 hPa | 0 mm | - | 162 W/m² | - |
| 1777815306 | 12.22° C | 54% | 1012.9 hPa | 0 mm | - | 141 W/m² | - |
| 1777815022 | 12.22° C | 54% | 1012.8 hPa | 0 mm | - | 131 W/m² | - |
| 1777814706 | 12.22° C | 54% | 1012.7 hPa | 0 mm | - | 124 W/m² | - |
| 1777814408 | 12.22° C | 54% | 1012.6 hPa | 0 mm | - | 98 W/m² | - |
| 1777814114 | 12.22° C | 55% | 1012.6 hPa | 0 mm | - | 150 W/m² | - |
| 1777813806 | 11.67° C | 55% | 1012.6 hPa | 0 mm | - | 273 W/m² | - |
* Rain latest hour (hover to see other rain measurements)
** Current wind speed in m/s (hover to see current wind gust speed)